Simultaneous Nadir Overpasses (SNOs) Predictions

Prediction of SNOs between LANDSAT-8 and METOP-A Satellite Orbit:

Table of predicted SNOs for the next 14.0 days since TLE Epoch: 11/17/2018
Index Date (LANDSAT-8) Time (LANDSAT-8) Lat,Lon (LANDSAT-8) SZA (LANDSAT-8 ) Date (METOP-A) Time (METOP-A) Lat,Lon (METOP-A) SZA (METOP-A ) Distance(km) Time Diff (sec)
1 11/17/2018 15:57:54 -81.41, 165.47 76.74 11/17/2018 15:57:15 -81.42, 165.54 76.75 1.33 39
2 11/17/2018 16:47:20 81.41, -26.78 103.29 11/17/2018 16:47:55 81.42, -26.78 103.31 0.52 35
3 11/20/2018 11:32:09 -81.41,-128.04 76.10 11/20/2018 11:31:31 -81.41,-128.22 76.13 3.02 38
4 11/20/2018 12:21:35 81.42, 39.69 103.93 11/20/2018 12:22:10 81.42, 39.82 103.96 2.26 35
5 11/23/2018 07:06:24 -81.41, -61.60 75.51 11/23/2018 07:05:46 -81.42, -61.60 75.53 0.53 38
6 11/23/2018 07:55:50 81.41, 106.10 104.51 11/23/2018 07:56:26 81.42, 106.00 104.52 1.73 36
7 11/26/2018 02:40:37 -81.43, 5.17 74.93 11/26/2018 02:40:00 -81.42, 5.01 74.97 2.85 37
8 11/26/2018 03:30:03 81.43, 172.85 105.09 11/26/2018 03:30:39 81.42, 172.96 105.11 1.96 36
9 11/28/2018 22:14:52 -81.42, 71.50 74.47 11/28/2018 22:14:15 -81.42, 71.60 74.47 1.67 37




NCC Satellite Simultaneous Nadir Overpasses (SNOs) Prediction Service
